Weather in Yola

Nigeria     9°12′25″N   12°28′47″E
temp.,
°C
wind,
m/s
gust,
m/s
humid.,
%
clouds,
%
prec.,
mm/h
press.,
hPa
HPBL,
m
25 january, mon
mon2501:00+22nne112213 0.0 101134
04:00+20nnw112249 0.0 101123
07:00+20ne012025 0.0 101323
10:00+29ne22110 0.0 1013566
13:00+35ene34937 0.0 10091409
16:00+37ene351017 0.0 10061979
19:00+29se011510 0.0 100824
22:00+26ene12180 0.0 101124
26 january, tue
tue2601:00+22nne01222 0.0 101023
04:00+21nnw012344 0.0 101023
07:00+20nw112222 0.0 101223
10:00+30ne12130 0.0 1013553
13:00+36ene46100 0.0 10091659
16:00+38ene2590 0.0 10062567
19:00+30ene011512 0.0 100724
22:00+27wnw12186 0.0 101024
27 january, wed
wed2701:00+24wnw112225 0.0 100924
04:00+22wsw112492 0.0 100923
07:00+21nnw112477 0.0 101123
10:00+32e12142 0.0 1011604
13:00+37e34108 0.0 10081798
16:00+39ene2497 0.0 10052475
19:00+30w011527 0.0 100624
22:00+27n12170 0.0 100926
28 january, thu
thu2801:00+23w12190 0.0 100923
04:00+22sw12190 0.0 100923
07:00+20n11200 0.0 101133
10:00+31ese12110 0.0 1012625
13:00+37ene3480 0.0 10091691
16:00+38ene2480 0.0 10062207
19:00+29wnw11120 0.0 100824
22:00+27n22140 0.0 101136
29 january, fri
fri2901:00+23w12160 0.0 101148
04:00+21s11150 0.0 101023
07:00+20n12170 0.0 101331
10:00+30e23110 0.0 1013658
13:00+36ene4680 0.0 10101662
16:00+38ene3670 0.0 10072801
19:00+30e23120 0.0 100924
22:00+25nnw12160 0.0 101135